| time (UTC) | temp F | wind direction | speed MPH | gust MPH | rain 1hr in | rain 24hr in | rain mn in | humidity % | barometer mb |
| 20260503183756 | 65 | 237 | 7.0 | 18.0 | 0.00 | 0.00 | 0.00 | 39 | 1009.8 |
| 20260503183254 | 65 | 183 | 8.0 | 21.0 | 0.00 | 0.00 | 0.00 | 38 | 1009.7 |
| 20260503182749 | 64 | 184 | 8.0 | 21.0 | 0.00 | 0.00 | 0.00 | 38 | 1009.9 |
| 20260503182242 | 63 | 254 | 7.0 | 19.0 | 0.00 | 0.00 | 0.00 | 40 | 1009.9 |
| 20260503181743 | 64 | 234 | 8.0 | 23.0 | 0.00 | 0.00 | 0.00 | 38 | 1009.9 |
| 20260503181242 | 65 | 240 | 8.0 | 23.0 | 0.00 | 0.00 | 0.00 | 38 | 1010.0 |
| 20260503180744 | 65 | 247 | 8.0 | 22.0 | 0.00 | 0.00 | 0.00 | 38 | 1010.0 |
| 20260503180242 | 65 | 273 | 8.0 | 22.0 | 0.00 | 0.00 | 0.00 | 36 | 1010.1 |
| 20260503175742 | 65 | 239 | 7.0 | 17.0 | 0.00 | 0.00 | 0.00 | 41 | 1009.9 |
| 20260503175242 | 64 | 293 | 7.0 | 26.0 | 0.00 | 0.00 | 0.00 | 40 | 1010.2 |
| 20260503174742 | 63 | 194 | 8.0 | 26.0 | 0.00 | 0.00 | 0.00 | 40 | 1010.2 |
| 20260503174242 | 63 | 198 | 7.0 | 19.0 | 0.00 | 0.00 | 0.00 | 40 | 1010.4 |
| 20260503173742 | 62 | 184 | 7.0 | 17.0 | 0.00 | 0.00 | 0.00 | 44 | 1010.5 |
| 20260503173242 | 62 | 225 | 7.0 | 18.0 | 0.00 | 0.00 | 0.00 | 45 | 1010.6 |
| 20260503172743 | 61 | 232 | 6.0 | 18.0 | 0.00 | 0.00 | 0.00 | 46 | 1010.6 |
| 20260503172242 | 60 | 214 | 5.0 | 16.0 | 0.00 | 0.00 | 0.00 | 47 | 1010.7 |
| 20260503171744 | 60 | 244 | 7.0 | 26.0 | 0.00 | 0.00 | 0.00 | 46 | 1010.8 |
| 20260503171245 | 60 | 216 | 8.0 | 26.0 | 0.00 | 0.00 | 0.00 | 44 | 1010.9 |
| 20260503170745 | 60 | 203 | 7.0 | 16.0 | 0.00 | 0.00 | 0.00 | 44 | 1011.0 |
| 20260503170244 | 60 | 184 | 7.0 | 17.0 | 0.00 | 0.00 | 0.00 | 47 | 1011.0 |
| 20260503160210 | 56 | 171 | 7.0 | 18.0 | 0.00 | 0.00 | 0.00 | 46 | 1011.8 |
| 20260503150918 | 59 | 256 | 6.0 | 18.0 | 0.00 | 0.00 | 0.00 | 46 | 1012.1 |
| 20260503150140 | 59 | 241 | 7.0 | 19.0 | 0.00 | 0.00 | 0.00 | 44 | 1012.1 |
| 20260503131235 | 50 | 299 | 4.0 | 10.0 | 0.00 | 0.00 | 0.00 | 56 | 1012.6 |
| 20260503130508 | 49 | 216 | 4.0 | 12.0 | 0.00 | 0.00 | 0.00 | 57 | 1012.7 |
| 20260503110348 | 40 | 207 | 3.0 | 6.0 | 0.00 | 0.00 | 0.00 | 64 | 1012.6 |
| 20260503090228 | 36 | 240 | 0.0 | 3.0 | 0.00 | 0.00 | 0.00 | 68 | 1013.3 |
| 20260503081210 | 36 | 274 | 0.0 | 2.0 | 0.00 | 0.00 | 0.00 | 70 | 1013.5 |
| 20260503080658 | 36 | 274 | 0.0 | 2.0 | 0.00 | 0.00 | 0.00 | 69 | 1013.6 |
| 20260503080418 | 36 | 240 | 0.0 | 1.0 | 0.00 | 0.00 | 0.00 | 69 | 1013.5 |
| 20260503072652 | 36 | 242 | 0.0 | 2.0 | 0.00 | 0.00 | 0.00 | 70 | 1013.7 |
| 20260503072152 | 36 | 242 | 1.0 | 2.0 | 0.00 | 0.00 | 0.00 | 70 | 1013.7 |
| 20260503071647 | 36 | 240 | 0.0 | 2.0 | 0.00 | 0.00 | 0.00 | 70 | 1013.7 |
| 20260503071134 | 36 | 248 | 0.0 | 2.0 | 0.00 | 0.00 | 0.00 | 70 | 1013.7 |
| 20260503070624 | 36 | 240 | 0.0 | 2.0 | 0.00 | 0.00 | 0.00 | 71 | 1013.7 |
| 20260503070558 | 36 | 238 | 0.0 | 2.0 | 0.00 | 0.00 | 0.00 | 71 | 1013.7 |
| 20260503060213 | 37 | 296 | 1.0 | 4.0 | 0.00 | 0.00 | 0.00 | 69 | 1014.2 |
| 20260503054936 | 37 | 274 | 0.0 | 2.0 | 0.00 | 0.00 | 0.00 | 69 | 1014.2 |
| 20260503054430 | 37 | 274 | 0.0 | 2.0 | 0.00 | 0.00 | 0.00 | 69 | 1014.2 |
| 20260503053919 | 37 | 243 | 0.0 | 3.0 | 0.00 | 0.00 | 0.00 | 70 | 1014.3 |
| 20260503053418 | 37 | 243 | 1.0 | 5.0 | 0.00 | 0.00 | 0.00 | 69 | 1014.3 |
| 20260503052911 | 37 | 257 | 0.0 | 5.0 | 0.00 | 0.00 | 0.00 | 70 | 1014.3 |
| 20260503052406 | 37 | 229 | 0.0 | 2.0 | 0.00 | 0.00 | 0.00 | 70 | 1014.4 |
| 20260503052343 | 37 | 254 | 0.0 | 2.0 | 0.00 | 0.00 | 0.00 | 71 | 1014.4 |
| 20260503051615 | 37 | 263 | 1.0 | 2.0 | 0.00 | 0.00 | 0.00 | 71 | 1014.4 |
| 20260503050848 | 37 | 244 | 0.0 | 2.0 | 0.00 | 0.00 | 0.00 | 71 | 1014.4 |
| 20260503050337 | 37 | 266 | 0.0 | 3.0 | 0.00 | 0.00 | 0.00 | 72 | 1014.4 |
| 20260503045836 | 37 | 266 | 0.0 | 3.0 | 0.00 | 0.00 | 0.00 | 72 | 1014.5 |
| 20260503045330 | 37 | 259 | 0.0 | 2.0 | 0.00 | 0.00 | 0.00 | 72 | 1014.5 |
| 20260503045047 | 37 | 259 | 0.0 | 2.0 | 0.00 | 0.00 | 0.00 | 73 | 1014.5 |
| 20260503044537 | 37 | 254 | 0.0 | 2.0 | 0.00 | 0.00 | 0.00 | 73 | 1014.5 |
| 20260503043807 | 37 | 242 | 0.0 | 3.0 | 0.00 | 0.00 | 0.00 | 73 | 1014.5 |
| 20260503043753 | 37 | 239 | 0.0 | 3.0 | 0.00 | 0.00 | 0.00 | 73 | 1014.5 |
| 20260503042755 | 37 | 257 | 0.0 | 2.0 | 0.00 | 0.00 | 0.00 | 72 | 1014.5 |
| 20260503042507 | 37 | 257 | 0.0 | 2.0 | 0.00 | 0.00 | 0.00 | 72 | 1014.5 |
| 20260503041738 | 37 | 254 | 0.0 | 2.0 | 0.00 | 0.00 | 0.00 | 72 | 1014.5 |
| 20260503041233 | 37 | 242 | 0.0 | 2.0 | 0.00 | 0.00 | 0.00 | 72 | 1014.6 |
| 20260503040942 | 37 | 222 | 0.0 | 2.0 | 0.00 | 0.00 | 0.00 | 72 | 1014.6 |
| 20260503040220 | 37 | 222 | 0.0 | 2.0 | 0.00 | 0.00 | 0.00 | 72 | 1014.7 |
| 20260503035713 | 37 | 219 | 0.0 | 1.0 | 0.00 | 0.00 | 0.00 | 72 | 1014.7 |
| 20260503035203 | 37 | 219 | 0.0 | 2.0 | 0.00 | 0.00 | 0.00 | 72 | 1014.7 |
| 20260503034701 | 37 | 219 | 0.0 | 2.0 | 0.00 | 0.00 | 0.00 | 73 | 1014.7 |
| 20260503034155 | 37 | 219 | 0.0 | 2.0 | 0.00 | 0.00 | 0.00 | 73 | 1014.7 |
| 20260503033649 | 37 | 219 | 0.0 | 0.0 | 0.00 | 0.00 | 0.00 | 73 | 1014.7 |
| 20260503033142 | 37 | 219 | 0.0 | 0.0 | 0.00 | 0.00 | 0.00 | 73 | 1014.8 |
| 20260503032637 | 37 | 219 | 0.0 | 0.0 | 0.00 | 0.00 | 0.00 | 73 | 1014.8 |
| 20260503032131 | 37 | 219 | 0.0 | 0.0 | 0.00 | 0.00 | 0.00 | 72 | 1014.8 |
| 20260503031620 | 38 | 219 | 0.0 | 0.0 | 0.00 | 0.00 | 0.00 | 71 | 1014.8 |
| 20260503031119 | 38 | 219 | 0.0 | 1.0 | 0.00 | 0.00 | 0.00 | 70 | 1014.8 |
| 20260503030612 | 38 | 219 | 0.0 | 1.0 | 0.00 | 0.00 | 0.00 | 70 | 1014.9 |
| 20260503030107 | 38 | 219 | 0.0 | 0.0 | 0.00 | 0.00 | 0.00 | 70 | 1014.8 |
| 20260503025601 | 38 | 219 | 0.0 | 1.0 | 0.00 | 0.00 | 0.00 | 70 | 1014.9 |
| 20260503025310 | 38 | 219 | 0.0 | 1.0 | 0.00 | 0.00 | 0.00 | 70 | 1014.9 |
| 20260503024548 | 38 | 219 | 0.0 | 1.0 | 0.00 | 0.00 | 0.00 | 70 | 1015.0 |
| 20260503024043 | 38 | 219 | 0.0 | 0.0 | 0.00 | 0.00 | 0.00 | 69 | 1015.0 |
| 20260503023536 | 39 | 219 | 0.0 | 0.0 | 0.00 | 0.00 | 0.00 | 69 | 1014.9 |
| 20260503023031 | 39 | 219 | 0.0 | 0.0 | 0.00 | 0.00 | 0.00 | 68 | 1015.0 |
| 20260503022524 | 39 | 219 | 0.0 | 0.0 | 0.00 | 0.00 | 0.00 | 68 | 1015.0 |
| 20260503022018 | 39 | 219 | 0.0 | 0.0 | 0.00 | 0.00 | 0.00 | 67 | 1015.0 |
| 20260503021509 | 39 | 219 | 0.0 | 0.0 | 0.00 | 0.00 | 0.00 | 67 | 1015.0 |
| 20260503021007 | 39 | 219 | 0.0 | 0.0 | 0.00 | 0.00 | 0.00 | 67 | 1015.0 |
| 20260503020500 | 40 | 219 | 0.0 | 0.0 | 0.00 | 0.00 | 0.00 | 66 | 1014.9 |
| 20260503015955 | 40 | 219 | 0.0 | 0.0 | 0.00 | 0.00 | 0.00 | 65 | 1014.9 |
| 20260503015448 | 40 | 219 | 0.0 | 0.0 | 0.00 | 0.00 | 0.00 | 64 | 1014.9 |
| 20260503014937 | 40 | 219 | 0.0 | 0.0 | 0.00 | 0.00 | 0.00 | 63 | 1014.8 |
| 20260503014925 | 40 | 219 | 0.0 | 0.0 | 0.00 | 0.00 | 0.00 | 63 | 1014.8 |
| 20260503014148 | 41 | 219 | 0.0 | 0.0 | 0.00 | 0.00 | 0.00 | 62 | 1014.8 |
| 20260503013424 | 41 | 219 | 0.0 | 0.0 | 0.00 | 0.00 | 0.00 | 62 | 1014.8 |
| 20260503012919 | 41 | 219 | 0.0 | 0.0 | 0.00 | 0.00 | 0.00 | 62 | 1014.7 |
| 20260503012409 | 42 | 219 | 0.0 | 0.0 | 0.00 | 0.00 | 0.00 | 62 | 1014.8 |
| 20260503011906 | 42 | 219 | 0.0 | 0.0 | 0.00 | 0.00 | 0.00 | 62 | 1014.7 |
| 20260503011401 | 42 | 219 | 0.0 | 0.0 | 0.00 | 0.00 | 0.00 | 62 | 1014.7 |
| 20260503010854 | 43 | 219 | 0.0 | 1.0 | 0.00 | 0.00 | 0.00 | 58 | 1014.6 |
| 20260503010349 | 43 | 219 | 0.0 | 2.0 | 0.00 | 0.00 | 0.00 | 58 | 1014.6 |
| 20260503005842 | 43 | 219 | 0.0 | 2.0 | 0.00 | 0.00 | 0.00 | 58 | 1014.6 |
| 20260503005337 | 44 | 200 | 0.0 | 0.0 | 0.00 | 0.00 | 0.00 | 57 | 1014.6 |
| 20260503004826 | 44 | 200 | 0.0 | 0.0 | 0.00 | 0.00 | 0.00 | 57 | 1014.5 |
| 20260503004324 | 45 | 200 | 0.0 | 0.0 | 0.00 | 0.00 | 0.00 | 57 | 1014.6 |
| 20260503003819 | 45 | 200 | 0.0 | 2.0 | 0.00 | 0.00 | 0.00 | 56 | 1014.6 |
| 20260503003312 | 46 | 200 | 1.0 | 2.0 | 0.00 | 0.00 | 0.00 | 54 | 1014.5 |
| 20260503002807 | 46 | 200 | 1.0 | 2.0 | 0.00 | 0.00 | 0.00 | 54 | 1014.6 |
| 20260503002256 | 46 | 200 | 0.0 | 4.0 | 0.00 | 0.00 | 0.00 | 54 | 1014.6 |
| 20260503001755 | 47 | 200 | 0.0 | 4.0 | 0.00 | 0.00 | 0.00 | 53 | 1014.5 |
| 20260503001248 | 47 | 249 | 0.0 | 3.0 | 0.00 | 0.00 | 0.00 | 53 | 1014.5 |
| 20260503000958 | 47 | 249 | 1.0 | 3.0 | 0.00 | 0.00 | 0.00 | 52 | 1014.5 |
| 20260503000457 | 47 | 224 | 2.0 | 4.0 | 0.00 | 0.00 | 0.00 | 52 | 1014.5 |
| 20260502235952 | 47 | 284 | 2.0 | 5.0 | 0.00 | 0.00 | 0.00 | 51 | 1014.5 |
| 20260502235224 | 48 | 267 | 3.0 | 6.0 | 0.00 | 0.00 | 0.00 | 50 | 1014.5 |
| 20260502234714 | 48 | 287 | 3.0 | 8.0 | 0.00 | 0.00 | 0.00 | 48 | 1014.5 |
| 20260502234212 | 48 | 280 | 3.0 | 8.0 | 0.00 | 0.00 | 0.00 | 48 | 1014.5 |
| 20260502233707 | 48 | 248 | 2.0 | 7.0 | 0.00 | 0.00 | 0.00 | 49 | 1014.5 |
| 20260502233200 | 48 | 271 | 2.0 | 5.0 | 0.00 | 0.00 | 0.00 | 49 | 1014.6 |
| 20260502232654 | 48 | 279 | 3.0 | 6.0 | 0.00 | 0.00 | 0.00 | 48 | 1014.6 |
| 20260502232145 | 49 | 299 | 3.0 | 10.0 | 0.00 | 0.00 | 0.00 | 47 | 1014.7 |
| 20260502231642 | 49 | 294 | 3.0 | 10.0 | 0.00 | 0.00 | 0.00 | 47 | 1014.6 |
| 20260502231132 | 48 | 288 | 4.0 | 8.0 | 0.00 | 0.00 | 0.00 | 47 | 1014.6 |
| 20260502230630 | 48 | 242 | 4.0 | 10.0 | 0.00 | 0.00 | 0.00 | 47 | 1014.6 |
| 20260502230353 | 48 | 192 | 5.0 | 10.0 | 0.00 | 0.00 | 0.00 | 47 | 1014.7 |
| 20260502225619 | 48 | 267 | 3.0 | 9.0 | 0.00 | 0.00 | 0.00 | 47 | 1014.7 |
| 20260502225113 | 48 | 259 | 3.0 | 7.0 | 0.00 | 0.00 | 0.00 | 48 | 1014.7 |
| 20260502224819 | 48 | 300 | 3.0 | 7.0 | 0.00 | 0.00 | 0.00 | 47 | 1014.7 |
| 20260502224100 | 48 | 244 | 3.0 | 10.0 | 0.00 | 0.00 | 0.00 | 47 | 1014.7 |
| 20260502223554 | 48 | 291 | 3.0 | 10.0 | 0.00 | 0.00 | 0.00 | 47 | 1014.8 |
| 20260502223316 | 48 | 319 | 2.0 | 5.0 | 0.00 | 0.00 | 0.00 | 47 | 1014.7 |
| 20260502222542 | 48 | 288 | 3.0 | 8.0 | 0.00 | 0.00 | 0.00 | 46 | 1014.7 |
| 20260502222032 | 48 | 334 | 4.0 | 8.0 | 0.00 | 0.00 | 0.00 | 46 | 1014.7 |
| 20260502221753 | 48 | 281 | 4.0 | 8.0 | 0.00 | 0.00 | 0.00 | 46 | 1014.7 |
| 20260502221024 | 48 | 295 | 3.0 | 8.0 | 0.00 | 0.00 | 0.00 | 47 | 1014.8 |
| 20260502220518 | 49 | 292 | 3.0 | 8.0 | 0.00 | 0.00 | 0.00 | 45 | 1014.7 |
| 20260502220233 | 49 | 278 | 3.0 | 6.0 | 0.00 | 0.00 | 0.00 | 46 | 1014.6 |
| 20260502215507 | 49 | 285 | 4.0 | 9.0 | 0.00 | 0.00 | 0.00 | 47 | 1014.7 |
| 20260502215001 | 48 | 270 | 4.0 | 9.0 | 0.00 | 0.00 | 0.00 | 47 | 1014.6 |
| 20260502214710 | 48 | 299 | 3.0 | 7.0 | 0.00 | 0.00 | 0.00 | 47 | 1014.7 |
| 20260502213948 | 48 | 244 | 3.0 | 7.0 | 0.00 | 0.00 | 0.00 | 47 | 1014.8 |
| 20260502213702 | 48 | 257 | 4.0 | 9.0 | 0.00 | 0.00 | 0.00 | 46 | 1014.7 |
| 20260502212937 | 48 | 273 | 5.0 | 11.0 | 0.00 | 0.00 | 0.00 | 46 | 1014.7 |
| 20260502212430 | 48 | 292 | 4.0 | 11.0 | 0.00 | 0.00 | 0.00 | 45 | 1014.7 |
| 20260502211920 | 49 | 269 | 4.0 | 8.0 | 0.00 | 0.00 | 0.00 | 47 | 1014.7 |
| 20260502211419 | 49 | 215 | 4.0 | 10.0 | 0.00 | 0.00 | 0.00 | 44 | 1014.7 |
| 20260502210913 | 49 | 304 | 4.0 | 10.0 | 0.00 | 0.00 | 0.00 | 44 | 1014.8 |
| 20260502210406 | 49 | 263 | 4.0 | 8.0 | 0.00 | 0.00 | 0.00 | 45 | 1014.9 |
| 20260502205900 | 48 | 279 | 6.0 | 14.0 | 0.00 | 0.00 | 0.00 | 46 | 1014.9 |
| 20260502205355 | 48 | 289 | 5.0 | 14.0 | 0.00 | 0.00 | 0.00 | 45 | 1015.0 |
| 20260502204848 | 48 | 180 | 4.0 | 11.0 | 0.00 | 0.00 | 0.00 | 47 | 1015.0 |
| 20260502204559 | 48 | 296 | 5.0 | 11.0 | 0.00 | 0.00 | 0.00 | 45 | 1015.0 |
| 20260502203836 | 48 | 277 | 5.0 | 9.0 | 0.00 | 0.00 | 0.00 | 46 | 1015.0 |
| 20260502203331 | 48 | 271 | 5.0 | 11.0 | 0.00 | 0.00 | 0.00 | 45 | 1015.1 |
| 20260502202824 | 48 | 288 | 5.0 | 11.0 | 0.00 | 0.00 | 0.00 | 45 | 1015.1 |
| 20260502202541 | 48 | 229 | 4.0 | 10.0 | 0.00 | 0.00 | 0.00 | 45 | 1015.1 |
| 20260502201808 | 48 | 230 | 5.0 | 10.0 | 0.00 | 0.00 | 0.00 | 45 | 1015.1 |
| 20260502201306 | 48 | 275 | 4.0 | 14.0 | 0.00 | 0.00 | 0.00 | 44 | 1015.2 |
| 20260502200800 | 48 | 262 | 3.0 | 14.0 | 0.00 | 0.00 | 0.00 | 45 | 1015.3 |
| 20260502200255 | 48 | 275 | 4.0 | 9.0 | 0.00 | 0.00 | 0.00 | 46 | 1015.3 |
| 20260502195748 | 48 | 251 | 3.0 | 8.0 | 0.00 | 0.00 | 0.00 | 47 | 1015.3 |
| 20260502195238 | 48 | 281 | 3.0 | 10.0 | 0.00 | 0.00 | 0.00 | 45 | 1015.3 |
| 20260502194737 | 47 | 300 | 4.0 | 10.0 | 0.00 | 0.00 | 0.00 | 45 | 1015.4 |
| 20260502194230 | 48 | 242 | 5.0 | 10.0 | 0.00 | 0.00 | 0.00 | 46 | 1015.4 |
| 20260502193724 | 48 | 267 | 4.0 | 10.0 | 0.00 | 0.00 | 0.00 | 45 | 1015.5 |
| 20260502193713 | 48 | 284 | 4.0 | 8.0 | 0.00 | 0.00 | 0.00 | 44 | 1015.5 |
| 20260502192713 | 48 | 316 | 5.0 | 9.0 | 0.00 | 0.00 | 0.00 | 44 | 1015.6 |
| 20260502192206 | 48 | 300 | 4.0 | 9.0 | 0.00 | 0.00 | 0.00 | 43 | 1015.6 |
| 20260502191656 | 48 | 271 | 3.0 | 10.0 | 0.00 | 0.00 | 0.00 | 43 | 1015.6 |
| 20260502191154 | 48 | 267 | 4.0 | 10.0 | 0.00 | 0.00 | 0.00 | 44 | 1015.7 |
| 20260502190649 | 48 | 297 | 4.0 | 10.0 | 0.00 | 0.00 | 0.00 | 43 | 1015.8 |
| 20260502190409 | 48 | 268 | 4.0 | 12.0 | 0.00 | 0.00 | 0.00 | 45 | 1015.8 |
| 20260502185636 | 48 | 304 | 3.0 | 12.0 | 0.00 | 0.00 | 0.00 | 43 | 1015.7 |
| 20260502185127 | 48 | 355 | 4.0 | 8.0 | 0.00 | 0.00 | 0.00 | 43 | 1015.8 |
| 20260502184625 | 48 | 174 | 4.0 | 8.0 | 0.00 | 0.00 | 0.00 | 43 | 1015.7 |